sat.trackr.live / text

‹ back to catalog

ONEWEB-0428

NORAD 51629 · 2022-012H

PAYLOAD ACTIVE UNKNOWN

§ Identity

Operator
Country
UK
Launch date
2022-02-10
Launch site
FRGUI
Launch vehicle
Mass (kg)
RCS (m²)

Purposes: comms

External: N2YO · Heavens-Above · Gunter

§ Orbital elements

Epoch: 2026-05-25T04:19:50.630304Z

Period
109.89 min
Inclination
87.8848°
Eccentricity
0.0001809
Mean motion
13.10370548 rev/d
Perigee alt
1,220.4 km
Apogee alt
1,223.1 km
Semi-major
7,599.9 km
B*
-1.1530e-4
RAAN
40.8545°
Arg perigee
78.0640°
Mean anomaly
282.0690°
Rev number
20,627

§ Raw data

ONEWEB-04281 51629U 22012H   26145.18044711 -.00000028  00000+0 -11530-3 0  99982 51629  87.8848  40.8545 0001809  78.0640 282.0690 13.10370548206273

JSON: /api/v1/satellites/51629 · /tle

For live sub-satellite position, see the globe view (requires WebGL).

§ Visibility from observer

Set your observer location to see the next 7 days of passes ≥ 10°. The values pass through the URL so the page stays shareable.

No JS? Fill the form by hand. The geolocation button needs JavaScript.